Location: *
(46.4000°N, 12.6667°E)
Time: 03:24:58
(UTC+00:00)

Envisat - Pass Details

Date: 11 December 2021
Orbit: 764 x 766 km, 98.2° (Epoch: 16 January)

Event Time Altitude Azimuth Distance (km) Brightness Sun altitude
Rises 15:47:43 0° 185° (S) 3,219 6.7 -4.6°
Reaches altitude 10° 15:50:08 10° 192° (SSW) 2,298 6.1 -4.9°
Maximum altitude 15:54:54 41° 263° (W) 1,105 4.6 -5.6°
Drops below altitude 10° 15:59:42 10° 333° (NNW) 2,314 5.5 -6.4°
Sets 16:02:09 0° 341° (NNW) 3,244 6.2 -6.8°
